Regional Weather Roundup
Issued by NWS Charleston, WV

Home | Current Version | Previous Version | Graphics & Text | Print | Product List | Glossary On
Versions: 1 2 3 4 5 6 7 8 9 10 11 12 13 14 15 16 17 18 19 20 21 22 23 24 25 26 27 28 29 30 31 32 33 34 35 36 37 38 39 40 41 42 43 44 45 46 47 48 49 50
607
ASUS41 KRLX 100910
RWRRLX
West Virginia Regional Weather Roundup
National Weather Service Charleston WV
400 AM EST SAT DEC 10 2016

Note: "fair" indicates few or no clouds below 12,000 feet with no
significant weather and/or obstructions to visibility.

WVZ003-101000-
Northern Panhandle of West Virginia

CITY           SKY/WX    TMP DP  RH WIND       PRES   REMARKS
WHEELING       CLOUDY    23  17  78 W10       30.44R
$$

WVZ009-101000-
Northwest West Virginia

CITY           SKY/WX    TMP DP  RH WIND       PRES   REMARKS
PARKERSBURG    CLOUDY    24  13  62 W7        30.54R
$$

WVZ006-101000-
Western West Virginia

CITY           SKY/WX    TMP DP  RH WIND       PRES   REMARKS
HUNTINGTON     CLOUDY    24  12  60 SW3       30.54F
$$

WVZ015-101000-
West Central West Virginia

CITY           SKY/WX    TMP DP  RH WIND       PRES   REMARKS
CHARLESTON     CLOUDY    23  12  62 W7        30.53S
$$

WVZ022-031-101000-
North Central West Virginia

CITY           SKY/WX    TMP DP  RH WIND       PRES   REMARKS
CLARKSBURG     CLOUDY    22  15  75 W8        30.47S
MORGANTOWN     CLOUDY    23  15  71 SW8       30.45S
$$

WVZ025-035-042-045-101000-
Southern West Virginia

CITY           SKY/WX    TMP DP  RH WIND       PRES   REMARKS
BECKLEY        CLOUDY    17  10  74 VRB7      30.41R WCI   8
LOGAN          CLOUDY    21  14  73 CALM      30.47F
BLUEFIELD      CLOUDY    14   9  80 W7        30.38S WCI   4
LEWISBURG      FLURRIES  18   9  69 W7        30.40S WCI   9
$$

WVZ047-101000-
Northern Mountains of West Virginia

CITY           SKY/WX    TMP DP  RH WIND       PRES   REMARKS
ELKINS         CLOUDY    20  11  68 W6        30.41S
$$

WVZ052-101000-
Eastern Panhandle of West Virginia

CITY           SKY/WX    TMP DP  RH WIND       PRES   REMARKS
MARTINSBURG    MOCLDY    28  14  55 SW5       30.43S
PETERSBURG     PTCLDY    28  13  55 SW6       30.46S
$$




USA.gov is the U.S. government's official web portal to all federal, state and local government web resources and services.